RH
7 9 13 11 11 11 11 14 14 15 20 21 18 20 26 30 27 30 32 34 33 33 32 36 42 45 45 49 54 57 57 61 58 51 47 43 40 37 36 37 46 55 56 58
9 12 10 10 12 12 12 14 14 14 17 19 17 17 18 26 26 22 27 31 31 28 30 36 41 43 44 48 55 61 63 65 63 51 53 45 44 37 38 42 52 57 59 62
11 10 9 11 13 13 11 12 12 11 12 14 18 20 18 20 24 22 21 24 27 27 29 34 41 44 42 46 52 56 64 65 66 63 52 54 53 49 45 42 42 46 58 61
9 8 10 12 13 11 11 10 10 10 11 11 17 17 22 18 25 25 21 22 23 27 28 30 35 40 40 41 43 52 60 66 63 66 60 67 46 42 34 40 41 51 58 60
10 9 10 12 12 10 10 8 9 8 10 13 18 14 24 18 23 23 20 19 20 22 26 28 30 35 36 36 38 46 59 64 63 66 66 52 61 40 38 41 55 64 66 61
8 7 8 9 8 8 9 10 11 10 9 18 15 14 16 18 19 17 18 18 18 19 22 26 28 32 36 34 36 41 58 69 65 64 65 68 65 57 48 51 52 51 47 46
9 8 7 7 9 7 9 10 15 15 16 15 16 16 12 9 14 13 15 16 17 18 20 24 28 32 36 37 37 40 54 66 63 61 61 71 67 67 68 65 53 58 49 42
11 12 8 6 8 9 9 9 12 23 15 13 19 15 12 9 10 11 12 12 14 16 17 21 23 29 33 36 39 41 48 62 62 60 66 66 69 70 57 58 53 49 48 47
11 10 6 6 6 6 9 10 7 9 12 10 10 11 9 8 8 10 13 13 14 16 17 21 22 26 30 34 37 39 47 55 58 56 61 68 69 71 58 67 62 52 75 53
8 11 6 6 5 6 7 8 10 9 20 18 12 13 10 12 11 15 16 15 16 16 17 19 23 26 28 29 32 36 39 50 52 53 55 60 65 68 67 67 68 66 64 66
6 8 8 6 8 7 8 9 8 6 9 14 14 11 10 10 11 16 16 17 18 19 18 19 20 24 29 27 30 34 37 45 51 56 57 62 60 62 65 65 63 68 67 66
6 6 10 8 6 5 6 8 8 11 20 12 12 10 6 8 12 16 14 18 18 18 19 21 22 24 29 33 31 33 39 44 51 55 63 64 62 63 64 70 72 69 69 65
7 8 10 10 9 8 8 7 8 8 10 17 13 10 8 10 15 17 16 16 21 22 23 25 29 29 33 37 38 38 42 47 53 62 63 62 64 66 67 66 67 65 64 63
15 8 12 8 11 8 11 8 8 8 12 12 11 11 12 10 11 17 20 20 23 28 30 30 35 41 42 45 48 50 52 52 59 60 61 68 67 66 64 66 66 66 64 61
9 14 11 8 6 5 7 7 8 9 10 10 9 10 10 11 11 9 19 28 31 34 35 39 43 49 51 56 58 55 58 60 63 66 68 73 70 68 67 68 67 65 64 60
11 18 12 11 8 7 7 6 7 7 7 7 7 9 8 9 9 16 25 31 33 35 36 42 47 53 57 59 58 62 66 68 68 68 69 70 71 70 69 66 65 64 61 61
17 17 21 17 9 8 12 9 8 9 8 8 9 9 9 10 15 17 22 27 30 34 39 46 50 54 57 58 63 66 67 65 67 70 70 69 68 65 64 60 59 60 64 64
22 27 21 15 16 20 10 6 7 8 10 9 9 9 11 13 13 12 16 22 29 34 41 48 50 56 60 58 61 64 61 65 64 66 65 64 63 62 61 61 65 65 60 62
12 21 19 19 17 14 10 10 10 10 12 9 10 11 9 11 18 20 23 25 30 37 44 50 52 57 61 63 64 65 65 63 61 61 62 59 58 59 59 64 67 64 61 59
11 21 16 21 19 21 14 10 9 9 15 10 10 11 10 20 19 11 24 34 36 43 51 55 56 58 63 68 65 67 66 61 60 58 60 60 61 61 63 65 67 64 57 57
18 20 20 19 20 12 9 8 10 21 15 10 11 14 12 24 14 27 33 38 42 51 57 58 59 63 68 66 64 66 63 64 60 58 59 61 60 65 64 66 64 63 60 62
21 22 17 18 23 22 9 9 15 17 13 11 13 15 16 23 31 38 41 48 53 60 62 59 63 66 65 65 65 69 70 65 61 61 61 63 63 52 56 68 67 66 66 59
20 17 16 17 17 17 15 13 12 11 13 12 12 16 17 26 36 41 48 53 59 61 62 60 62 67 65 64 62 67 71 66 69 65 68 67 65 61 61 65 64 45 55 46
20 15 17 22 19 15 15 16 19 22 20 15 14 14 22 28 37 44 52 58 61 61 63 59 62 64 66 62 60 63 66 70 65 68 68 64 62 61 59 40 41 44 44 39
10 18 22 21 18 18 14 16 16 19 23 22 20 19 26 31 42 50 58 63 63 66 62 60 62 65 66 63 63 58 61 59 59 61 58 53 48 51 54 53 48 43 60 55
10 18 15 14 18 20 18 20 19 21 24 26 24 27 30 37 47 51 58 61 64 62 60 62 63 64 62 59 60 62 62 58 56 54 44 37 34 35 36 39 46 89 81 86
Wind_Speed
14 11 14 14 10 8 2 3 2 5 8 7 7 4 12 14 13 12 11 11 11 11 12 14 14 14 13 14 15 15 14 12 9 9 8 8 8 6 6 6 7 8 6 6
10 17 16 7 4 7 7 6 4 4 4 9 6 8 10 14 13 12 13 13 13 13 13 14 14 14 15 16 16 15 16 15 12 10 8 7 5 6 5 5 6 6 7 6
17 18 10 12 11 11 9 7 3 6 2 11 4 11 13 13 12 12 12 12 14 15 15 15 15 15 15 15 15 16 15 16 14 14 9 8 8 8 8 8 7 6 7 6
21 11 14 15 16 13 12 8 5 4 8 4 9 7 12 15 15 16 16 15 15 16 15 15 17 17 16 15 14 14 15 15 14 14 11 12 10 9 6 6 5 5 5 7
18 13 17 17 17 15 11 3 5 5 10 6 10 9 9 14 15 19 18 17 17 17 17 17 18 17 16 15 15 14 13 13 13 13 13 11 12 9 8 7 5 7 6 8
17 8 20 20 10 11 7 7 6 7 8 9 10 12 14 11 17 18 20 19 18 18 18 17 17 17 16 16 15 14 14 14 14 14 14 14 12 10 8 6 6 7 6 6
13 15 12 10 14 12 16 14 9 9 8 4 5 8 1 7 11 8 19 22 21 20 19 19 19 18 17 18 17 15 16 15 15 15 14 12 14 12 12 10 9 8 7 7
19 21 18 14 20 13 18 19 11 12 11 7 5 8 6 2 3 7 12 19 23 21 20 20 20 19 19 19 19 18 17 16 16 15 14 13 14 7 10 11 9 8 7 7
20 22 23 17 19 19 18 22 20 14 2 5 11 7 8 12 10 9 13 17 20 22 20 21 20 19 18 18 19 19 17 16 16 16 13 14 13 13 11 10 8 8 7 6
11 18 17 19 17 19 13 20 13 11 10 13 9 9 6 9 5 3 11 16 16 17 20 19 18 19 18 18 16 17 16 16 14 14 13 11 11 11 11 9 9 9 6 5
10 12 15 20 19 21 11 14 14 13 14 11 7 10 9 6 1 3 10 15 17 17 16 17 17 16 15 15 15 14 14 13 11 10 9 9 8 8 7 7 7 3 4 3
19 11 13 21 23 23 24 21 20 11 11 12 10 4 7 5 4 3 7 12 14 14 14 13 13 13 13 14 12 12 10 10 8 7 6 7 6 5 5 4 4 3 3 5
24 12 14 20 13 13 21 23 24 21 16 16 13 11 10 6 6 5 7 12 12 11 12 12 12 12 11 11 9 8 8 7 7 6 7 5 5 5 5 4 4 2 1 2
21 18 20 16 18 16 21 21 20 22 14 15 13 16 9 10 10 9 8 9 12 11 12 12 12 11 10 10 10 9 8 8 8 7 6 6 6 5 6 5 5 5 4 4
19 21 19 21 6 26 22 24 25 26 23 20 15 16 16 11 11 9 9 9 10 11 13 13 13 12 12 11 11 11 10 9 10 10 10 9 8 7 7 7 6 5 5 5
20 16 18 21 14 10 19 25 25 25 24 25 20 17 13 13 14 6 10 10 12 12 13 13 13 14 14 14 13 12 12 12 11 11 11 11 10 9 8 7 6 5 5 5
19 14 15 19 20 19 20 19 17 15 16 14 18 13 10 12 13 15 14 14 14 14 15 15 15 15 14 14 15 14 14 13 13 13 11 10 10 8 7 5 5 5 5 5
13 18 13 14 17 27 13 21 21 18 17 18 14 12 8 11 13 16 15 15 14 15 16 15 15 15 15 15 15 15 14 14 13 12 11 9 8 8 6 5 6 5 5 5
9 14 12 14 15 11 19 14 15 22 19 20 19 17 16 9 6 12 12 13 13 15 15 15 15 16 16 16 16 16 15 14 12 11 10 8 7 7 6 6 5 5 5 5
11 7 9 12 20 24 14 18 13 14 18 19 21 21 21 11 9 11 18 15 13 15 15 17 18 18 17 16 16 15 14 13 11 10 9 8 7 6 6 5 5 5 5 5
14 11 14 11 14 16 10 18 19 20 9 17 17 18 19 16 14 5 17 15 15 15 18 19 18 17 17 16 16 16 15 14 11 8 8 8 6 7 5 5 6 5 6 6
16 13 13 14 15 18 10 15 25 11 15 9 13 15 17 21 7 10 15 18 20 20 21 20 17 17 16 16 15 16 15 12 11 10 8 9 7 6 5 6 6 5 6 5
17 17 13 12 13 3 9 14 14 14 13 16 16 15 16 17 13 15 17 20 19 21 19 19 21 20 16 15 14 17 14 13 12 11 9 9 9 7 5 7 6 4 6 6
16 12 10 12 15 15 12 8 9 9 13 12 11 12 17 21 17 17 17 17 18 19 19 19 20 20 18 14 13 14 13 11 11 12 10 9 9 7 7 5 5 7 7 6
10 15 14 14 13 8 16 13 16 11 9 9 12 13 18 18 17 17 18 18 18 19 19 19 19 18 18 15 14 13 12 11 10 11 8 6 7 6 8 8 8 6 6 7
16 9 15 11 15 12 13 14 16 14 11 9 11 14 15 17 19 19 19 18 19 19 19 18 19 19 18 16 16 14 12 12 12 11 8 7 6 5 4 5 8 7 8 6
Wind_Direction
195 210 212 196 230 24 240 252 188 161 137 216 241 157 168 182 195 189 192 190 193 192 176 177 183 185 191 195 200 206 210 218 215 219 227 233 251 254 260 273 275 279 285 295
178 221 209 204 177 225 191 197 188 98 155 224 214 235 166 182 204 201 195 195 197 189 181 180 178 185 193 195 200 202 210 208 211 215 227 246 259 259 272 287 271 275 273 270
208 208 189 201 197 217 216 232 138 317 183 224 263 224 207 188 201 209 211 201 196 199 190 185 183 192 194 199 198 203 207 211 212 222 214 220 246 247 249 247 248 249 267 273
222 152 188 202 209 216 231 192 258 220 248 293 211 109 190 190 199 209 212 206 204 200 200 190 190 196 199 199 199 204 204 207 209 208 222 222 238 246 252 251 256 278 261 283
201 184 191 212 215 205 249 167 227 232 248 281 193 267 114 190 199 206 214 212 205 198 200 200 195 197 200 201 197 200 201 205 212 204 226 220 231 246 239 252 255 262 279 269
219 205 210 208 191 218 156 175 185 228 255 231 164 246 148 174 218 208 204 211 208 200 198 201 199 197 200 203 200 198 198 205 203 208 208 223 241 241 256 243 263 272 275 270
189 198 197 226 187 188 197 207 214 223 201 246 144 218 223 170 159 209 200 202 210 197 198 198 200 199 199 204 205 199 202 209 206 207 214 215 227 235 250 254 257 277 268 255
194 196 191 188 216 189 205 222 226 207 212 157 151 217 217 213 112 195 216 204 202 202 194 202 200 201 202 204 204 207 201 209 209 210 211 217 226 228 234 234 253 265 259 266
199 211 182 187 207 196 200 225 232 264 288 255 164 213 271 236 237 204 203 207 202 199 199 200 200 201 206 205 208 208 209 206 212 213 212 216 221 228 245 252 258 246 255 274
196 202 189 186 200 214 212 207 204 233 226 231 160 217 222 174 175 156 197 194 190 200 198 201 203 201 203 208 208 209 211 211 212 217 214 217 219 227 237 247 252 266 277 253
178 239 166 183 199 186 189 204 224 237 235 221 218 198 202 229 274 75 156 177 181 188 195 202 203 202 204 209 205 210 208 213 212 216 219 224 227 224 230 241 244 250 256 254
201 206 179 194 203 219 202 202 206 223 190 255 303 222 144 208 236 174 154 169 174 182 182 191 193 196 195 212 206 206 209 205 208 208 208 214 218 213 208 213 133 193 230 253
194 225 201 186 178 208 225 213 208 220 238 215 229 236 155 160 228 192 182 166 167 170 171 174 176 185 183 190 196 198 186 189 183 179 191 188 151 173 147 146 136 211 281 267
188 215 220 204 207 188 209 211 222 223 213 232 218 258 177 191 218 176 179 173 162 169 165 164 168 166 167 165 166 166 158 156 152 158 142 131 140 121 112 110 111 86 70 48
199 220 203 244 235 201 201 208 206 218 226 229 239 220 252 203 218 217 172 168 172 170 168 165 164 158 155 152 155 152 138 131 129 128 119 112 111 101 96 90 80 67 41 26
209 213 215 222 213 225 211 218 214 223 226 235 233 246 202 226 232 243 208 188 190 177 171 168 158 153 155 152 146 135 131 126 120 115 109 108 103 94 88 79 65 51 28 16
202 207 201 216 218 224 234 219 211 217 228 236 230 229 219 229 225 223 219 206 198 178 169 166 158 153 150 146 140 134 124 119 114 111 108 105 102 92 79 70 58 42 37 25
184 210 200 218 210 221 228 217 226 232 209 222 232 226 210 240 243 241 226 214 200 177 165 159 153 146 142 140 127 123 121 119 117 114 112 107 101 96 86 67 57 43 37 26
188 190 200 223 205 217 216 193 208 207 216 217 218 234 242 235 265 241 245 212 193 176 160 154 145 140 137 132 130 124 122 119 116 107 96 91 89 81 76 75 66 43 23 26
197 241 240 193 228 222 222 176 196 211 227 217 219 220 228 183 225 241 190 188 172 160 152 147 141 140 134 134 129 125 115 109 100 100 97 89 80 77 74 74 67 46 9 48
185 202 208 205 222 236 217 211 173 215 204 204 209 218 227 197 229 4 132 154 152 148 146 140 144 138 134 136 129 118 112 102 99 97 97 91 89 85 76 69 54 36 20 13
186 190 194 213 214 234 218 201 209 220 225 216 200 211 210 207 153 140 143 149 151 149 146 148 137 134 133 128 125 119 113 122 120 119 119 106 91 64 76 65 52 29 6 356
211 207 189 214 205 133 190 213 209 238 227 219 226 218 207 180 174 155 154 155 155 153 155 145 142 136 134 135 135 127 130 134 129 134 113 102 91 76 68 59 26 21 30 0
223 217 226 185 226 219 218 225 236 243 247 266 243 226 191 181 169 158 154 155 154 155 151 146 144 137 133 134 133 125 134 127 136 119 116 114 98 104 55 48 40 43 17 8
223 185 221 218 232 209 228 240 246 240 237 238 231 203 188 173 166 153 152 155 155 155 154 154 145 137 131 129 122 122 127 133 128 118 119 134 113 79 103 62 26 50 48 23
221 224 216 227 217 221 238 225 229 228 219 214 203 182 175 164 156 154 152 155 159 160 158 147 140 136 135 133 126 125 138 147 135 138 146 105 94 93 96 122 130 76 102 125